Theta_e
322 323 324 328 329 331 333 333 331 328 326 321 322 320 320 327 325 324 320 318 318 319 321 320 322 324 324 323 323 323 325 327 328 330 330 328 320 320 324 323 327 327 328 329 329 328 325 326 327 327 328 328 328 330 330 331 332 333 333 334 335 335 335 335 335 335 335 336 335 336 336 336 336 334 333 333 334 333 332 331 333 334 334 336 337 338 338 338 338 339 339 339 339 338 337 337 337
325 328 328 329 329 333 337 333 328 326 323 318 320 321 322 325 322 323 320 319 319 320 322 321 321 322 322 322 322 322 324 324 324 327 324 320 319 321 322 323 325 325 327 328 328 327 324 324 326 327 327 327 327 327 328 329 330 331 332 333 333 334 334 334 334 334 334 335 334 334 334 333 333 332 331 332 332 333 332 331 331 331 332 332 334 336 337 337 337 338 338 339 338 339 337 336 336
327 330 330 330 331 333 335 332 326 322 320 317 318 324 326 322 321 323 321 321 322 320 321 320 320 321 321 322 321 321 325 323 320 321 319 319 320 320 321 322 324 325 325 326 327 325 323 322 323 324 324 324 323 324 324 325 327 328 329 330 331 332 332 332 333 332 333 332 332 332 331 331 330 330 329 330 330 331 330 330 330 330 330 330 331 333 335 336 337 338 338 338 338 338 337 336 336
327 331 331 331 335 332 333 333 328 322 319 317 316 323 325 323 323 323 322 323 322 320 320 320 319 320 320 322 321 320 323 323 321 321 319 319 319 320 321 321 322 323 323 324 325 324 321 321 322 321 321 321 320 320 321 322 323 325 326 327 328 329 329 330 330 330 330 330 329 329 329 329 328 328 327 327 327 327 328 328 329 329 329 329 329 330 332 333 334 335 336 337 337 337 336 335 334
326 331 329 330 336 332 330 331 330 326 322 318 317 322 323 323 324 322 321 321 321 320 319 319 319 319 319 320 320 321 323 322 321 320 318 317 318 320 321 320 320 321 322 323 323 321 320 320 320 320 319 318 317 317 318 319 320 321 322 324 325 326 326 326 327 327 327 327 327 327 327 326 325 325 325 325 324 324 325 325 325 326 326 327 328 329 329 330 330 331 332 333 333 333 333 332 331
326 328 326 327 333 330 329 328 325 323 323 322 320 322 322 321 322 321 320 319 320 319 319 319 319 319 319 319 319 321 321 321 321 319 317 315 316 318 319 318 319 320 320 322 322 320 319 320 319 318 316 315 315 315 315 315 316 317 317 319 320 321 322 322 322 322 323 323 323 322 322 321 321 320 320 320 320 320 320 321 321 321 322 323 324 325 327 327 328 328 329 329 329 330 330 330 329
327 329 327 328 330 326 327 325 321 321 322 324 322 322 322 321 322 320 319 319 318 318 318 318 319 319 319 318 318 318 317 320 320 318 318 315 315 317 316 316 318 318 319 321 321 319 318 318 317 314 313 312 311 310 310 311 311 312 312 312 312 313 313 314 314 314 314 314 314 313 313 312 311 311 311 311 312 313 313 313 314 315 315 316 317 319 320 322 323 324 324 324 325 325 325 325 325
326 330 330 329 331 326 325 322 321 322 322 323 321 323 322 321 322 321 319 319 318 317 317 318 318 318 319 319 320 318 315 318 318 317 317 314 315 315 314 315 316 316 318 319 318 318 317 316 314 311 309 308 307 307 307 307 307 307 307 307 306 306 305 306 306 305 305 305 305 305 304 304 303 303 303 303 304 304 304 305 305 306 306 307 308 309 311 312 314 315 315 316 317 317 317 318 319
324 329 329 327 328 327 325 324 322 323 324 323 321 323 322 321 321 320 319 318 318 318 317 318 318 317 318 319 321 317 315 317 316 315 314 313 315 314 312 313 314 314 317 317 316 316 315 313 310 308 306 305 304 304 304 304 304 303 304 304 303 303 301 301 300 300 300 300 300 300 300 300 300 299 299 299 299 299 299 299 299 300 300 300 301 302 302 304 304 305 305 306 306 307 307 308 310
324 327 328 327 326 325 323 323 323 325 325 323 321 320 320 320 320 320 319 319 318 318 318 318 317 317 318 318 321 318 315 315 314 313 312 313 314 312 310 311 312 313 314 315 315 314 313 311 308 306 305 303 301 301 301 301 301 300 300 301 300 300 299 299 298 298 298 298 298 298 299 298 298 298 298 298 297 298 298 297 297 298 298 298 298 298 298 299 299 299 299 299 299 299 300 300 301
327 327 326 326 325 322 320 320 324 326 324 322 321 319 319 320 319 319 319 319 318 319 319 318 317 318 317 317 322 318 314 313 313 312 311 312 312 310 308 309 309 310 312 313 313 312 310 308 305 304 302 300 300 299 299 299 299 299 299 299 299 299 298 298 298 297 297 297 297 297 297 297 297 297 297 297 297 297 297 297 297 297 298 298 298 298 298 298 298 298 298 298 298 298 298 298 298
328 330 327 324 322 321 322 322 323 326 325 323 321 319 319 319 319 319 319 319 318 319 318 318 317 318 317 318 320 316 312 312 312 312 311 311 310 309 308 308 308 308 309 310 310 309 306 304 302 301 300 299 299 299 299 299 298 298 298 298 298 298 298 298 298 297 297 297 297 297 297 297 297 297 297 297 297 297 296 297 297 297 297 297 297 297 297 297 297 297 298 297 298 298 297 297 297
327 329 328 326 325 324 325 324 324 326 325 324 321 319 319 318 319 319 319 319 319 319 318 317 317 317 317 319 318 314 312 312 312 311 310 310 309 308 307 307 307 307 307 306 306 305 303 301 300 299 299 298 298 298 298 298 298 298 298 298 298 298 298 298 297 297 297 297 297 297 297 297 297 296 297 296 297 297 296 297 296 297 296 297 297 296 296 296 297 296 297 297 297 297 297 297 297
327 327 326 327 327 325 325 324 324 324 322 323 320 318 318 318 319 319 319 319 319 318 318 317 316 317 317 318 318 316 313 312 311 310 309 309 308 307 306 306 305 306 305 304 303 303 301 300 300 299 298 298 298 298 298 297 297 297 297 297 297 297 297 297 296 296 296 296 296 296 296 296 296 296 296 296 296 296 296 296 296 296 296 296 296 296 296 296 296 296 296 296 296 296 296 297 297
327 328 326 325 324 322 324 324 324 323 321 321 319 317 318 318 318 319 319 319 318 317 317 317 316 317 317 317 319 317 314 312 310 309 309 307 307 306 305 305 304 305 303 302 302 301 301 300 299 298 298 298 297 298 297 297 296 296 296 296 296 296 296 296 296 296 295 295 296 296 297 297 296 296 296 295 295 295 295 295 295 295 295 295 295 295 295 295 295 295 295 296 296 296 296 296 297
324 327 326 324 322 321 324 326 325 323 322 320 318 317 317 317 317 318 317 316 317 317 317 317 316 316 316 317 318 315 313 311 309 308 308 306 306 305 304 304 304 303 302 301 301 300 300 300 299 298 297 298 299 299 297 296 296 296 296 296 296 296 296 296 296 296 296 295 296 297 299 300 297 295 295 295 295 294 294 294 294 294 294 294 294 295 295 295 295 295 295 295 296 296 296 297 298
323 325 326 324 323 321 324 328 325 322 323 319 317 317 317 317 316 315 314 314 315 317 317 317 316 316 315 315 315 314 312 309 308 308 306 306 305 305 304 304 303 302 301 301 301 300 300 300 299 298 297 298 300 300 297 296 296 295 296 296 296 296 296 296 296 296 296 295 296 297 297 299 297 294 294 294 294 294 294 294 294 294 294 294 294 295 295 295 294 295 295 295 297 298 296 297 298
325 326 325 322 323 323 325 326 322 323 323 319 317 317 317 317 316 314 314 314 314 315 316 316 316 316 313 312 313 313 310 308 307 306 306 305 305 305 305 304 303 302 301 301 301 301 300 300 299 299 298 299 300 299 297 295 295 295 295 295 295 296 296 296 296 296 296 295 296 297 295 296 296 294 294 294 295 295 294 294 294 294 294 294 294 295 295 294 294 296 296 295 297 298 296 296 297
325 327 325 323 324 324 324 322 320 320 320 319 318 317 316 317 317 314 314 315 315 314 315 315 316 316 312 310 312 311 308 307 307 306 306 305 305 305 305 304 303 302 302 301 301 301 301 300 300 300 299 298 298 297 296 295 295 295 295 295 295 296 296 296 296 296 296 295 297 297 294 295 296 295 294 294 295 294 294 294 294 293 293 294 294 294 294 294 294 295 296 295 295 295 295 296 296
323 324 324 325 325 323 322 320 319 319 318 318 318 318 317 317 317 314 314 316 315 315 315 315 315 316 313 310 311 309 307 307 306 306 306 306 306 305 305 304 303 303 302 302 301 301 301 300 300 300 299 298 297 296 295 295 296 295 295 295 295 295 296 296 296 295 295 295 295 295 294 295 297 295 294 294 294 294 294 293 293 293 293 293 293 293 293 294 294 294 294 294 294 294 294 295 295
323 322 322 324 322 323 322 319 318 318 317 317 317 318 317 317 317 314 315 316 316 315 315 316 315 315 314 311 311 309 307 307 306 306 306 306 306 306 305 305 304 303 303 302 301 301 301 300 300 299 299 298 297 296 295 296 296 297 296 296 297 296 295 295 295 295 295 295 295 295 295 296 297 295 293 294 294 294 294 293 293 293 293 293 293 293 293 293 293 293 293 293 293 292 293 294 296
323 322 322 322 321 321 320 318 319 317 316 316 316 317 316 316 317 315 315 315 316 316 317 317 316 316 315 312 310 309 307 307 306 306 306 307 306 306 306 305 305 304 303 303 302 301 301 301 300 299 300 298 297 296 296 297 297 298 298 297 297 297 296 296 297 296 295 294 294 296 297 296 296 295 293 294 294 294 294 294 293 293 293 293 292 292 292 292 292 292 292 292 292 292 292 293 295
321 321 321 320 319 320 318 318 319 317 315 315 315 316 316 316 316 316 316 315 315 316 317 318 317 316 315 311 310 311 309 308 307 306 306 306 307 307 306 306 305 304 304 303 302 302 301 301 300 300 300 299 297 297 298 298 298 298 298 296 297 297 295 296 297 297 294 294 294 296 296 296 296 294 293 294 294 294 294 294 293 293 292 292 292 291 291 291 291 291 291 292 291 291 292 292 294
319 319 319 319 319 319 319 318 318 316 315 315 315 315 316 316 316 316 315 315 315 316 316 317 316 314 313 312 311 311 310 309 308 307 307 307 307 307 307 306 305 305 304 303 302 302 301 301 300 300 300 299 298 298 299 299 298 299 299 297 298 297 296 297 297 296 294 293 294 294 294 295 295 294 293 293 294 294 294 294 293 292 292 292 291 291 291 290 290 290 291 291 291 291 291 292 293
319 319 318 319 319 318 318 318 317 315 314 315 315 315 315 315 315 315 315 315 316 316 316 316 316 314 314 313 311 311 311 309 308 308 307 307 307 307 307 306 306 305 304 303 303 302 301 301 301 300 299 298 298 298 299 298 298 299 299 297 298 298 297 297 296 295 295 294 293 293 294 294 294 293 293 293 294 294 294 293 293 292 291 291 291 290 290 290 290 290 290 291 291 291 292 292 293
318 317 318 318 318 318 317 317 317 315 314 315 315 315 314 314 315 315 315 315 315 316 317 316 316 315 315 314 312 311 311 311 309 308 308 307 307 307 307 307 306 305 304 304 303 302 301 301 300 300 299 299 298 298 299 298 297 299 298 296 296 296 297 297 295 295 296 294 293 293 293 293 293 293 293 293 293 293 294 293 292 291 291 290 290 290 289 289 289 289 290 291 291 291 292 292 293
316 316 316 315 316 316 316 316 316 316 315 315 315 314 314 315 315 315 315 315 316 316 316 316 316 315 314 314 313 312 312 311 310 309 309 308 307 307 307 307 306 306 305 304 303 302 301 300 300 300 299 299 298 297 298 298 298 298 297 296 296 295 296 296 295 296 296 295 293 293 293 293 293 293 292 292 293 293 293 292 291 291 290 290 289 289 289 289 289 289 290 291 291 292 293 292 293
315 315 315 315 315 315 316 316 316 316 316 315 314 314 314 314 315 315 315 315 316 316 316 316 316 316 315 313 313 313 312 310 310 310 309 308 308 308 307 307 307 306 305 304 303 302 301 300 300 300 299 299 298 297 297 298 298 297 296 297 296 294 295 294 295 296 295 294 292 292 293 292 293 293 292 292 292 292 292 291 291 290 290 290 289 289 289 289 288 288 289 290 290 291 291 292 293
315 314 314 315 315 315 315 315 316 316 316 315 314 314 314 314 315 314 314 315 315 316 316 316 316 316 316 314 313 313 312 310 310 309 309 309 308 308 308 307 307 306 305 304 303 302 301 300 300 299 299 299 298 297 297 298 298 297 297 296 295 294 294 294 295 295 294 293 292 292 292 292 292 293 292 292 291 291 291 291 290 290 290 290 289 289 289 288 288 288 289 289 289 289 290 291 292
314 314 314 315 315 316 316 316 317 316 315 315 314 314 314 314 314 314 314 315 315 316 315 316 317 316 316 315 313 313 312 310 310 309 310 310 309 308 308 308 308 307 306 304 303 302 301 300 299 299 298 298 298 297 297 298 297 297 297 296 295 294 294 294 295 294 293 293 291 291 291 291 292 292 291 291 291 291 290 290 290 290 290 289 289 289 288 288 288 288 288 288 288 289 290 290 291
315 315 316 317 316 317 318 318 318 316 314 314 314 313 313 314 315 315 315 315 315 315 315 315 316 316 315 315 314 313 312 311 310 310 310 310 309 309 308 308 308 307 306 304 303 302 301 300 299 298 298 298 298 298 298 298 297 297 296 296 295 294 294 295 295 294 294 293 292 291 291 291 291 291 291 291 291 291 290 290 290 290 289 289 288 288 288 288 288 288 288 288 288 289 290 290 290
315 316 318 319 317 317 318 318 318 316 313 313 314 314 314 314 315 316 317 316 316 315 314 314 314 315 314 314 313 313 313 311 309 310 310 310 310 309 308 308 308 307 306 304 303 302 301 300 299 298 298 298 298 298 298 297 297 297 296 296 295 294 294 295 295 294 293 293 292 292 291 290 291 291 290 290 290 290 290 289 289 289 289 288 288 288 288 288 288 287 287 288 289 289 289 289 289
318 317 318 320 318 317 318 318 316 316 314 312 314 315 315 314 315 317 318 317 316 315 315 315 314 314 314 314 314 313 313 312 311 310 309 310 310 309 309 308 308 307 306 304 303 302 301 300 299 298 298 298 297 297 298 297 297 296 296 296 295 294 295 295 295 294 293 293 292 292 291 290 291 291 290 290 290 290 289 289 289 289 289 289 289 288 288 287 287 287 288 289 290 289 289 289 289
320 319 317 319 319 317 318 317 316 316 315 314 313 313 314 314 315 316 317 317 316 316 315 315 315 314 314 314 314 315 314 313 313 310 309 310 310 309 309 308 307 307 305 304 303 302 301 299 299 298 298 298 297 297 297 297 296 296 295 296 294 294 295 295 294 294 293 293 292 291 291 290 290 290 290 289 289 289 289 289 289 289 289 289 289 288 288 287 287 288 288 289 289 289 288 289 289
318 319 316 317 318 317 317 317 316 316 315 315 314 313 313 313 314 314 315 316 315 315 315 315 315 314 314 314 314 315 314 314 313 310 309 310 310 309 308 307 307 306 305 304 303 302 300 299 298 298 297 297 297 297 297 296 296 295 295 295 295 295 295 294 294 294 293 292 291 291 291 290 290 290 289 289 289 289 289 289 289 289 288 288 288 288 287 287 287 288 288 288 288 287 288 288 289
317 318 316 317 318 317 318 317 317 316 315 315 314 314 314 314 314 314 314 315 315 315 315 315 314 314 314 314 314 315 315 315 313 309 309 310 309 309 308 307 306 306 304 303 302 301 300 299 298 297 297 297 296 296 296 296 295 295 295 295 295 294 294 294 294 293 292 292 291 291 290 289 290 290 289 289 289 289 289 289 288 288 288 288 288 287 287 287 287 287 287 287 287 287 288 289 289
318 318 319 319 318 316 316 317 317 316 315 315 315 314 314 315 315 314 314 314 315 315 314 315 314 314 314 314 315 315 315 318 314 309 309 309 309 309 307 306 305 304 303 302 302 300 299 299 298 297 297 297 296 296 296 295 295 295 295 294 294 294 294 293 293 292 292 291 291 290 289 289 289 289 289 289 289 289 288 288 288 288 287 287 287 287 287 286 287 287 287 287 288 288 288 288 289
318 319 319 319 318 317 316 318 317 314 315 315 315 315 314 314 314 314 315 314 314 314 314 314 314 314 314 314 316 315 319 323 317 311 309 308 308 307 306 305 304 303 302 302 301 300 299 299 298 297 297 297 296 296 296 295 295 295 294 294 293 293 293 292 292 291 291 291 291 290 289 289 289 289 288 288 288 288 288 288 287 287 287 287 287 286 286 286 287 287 288 288 288 289 289 288 288
320 320 320 318 317 317 316 318 316 312 314 315 315 314 313 314 314 314 315 314 314 314 314 314 314 314 314 315 315 316 322 323 315 312 309 306 306 306 304 304 303 302 301 301 300 300 299 298 298 297 297 296 296 296 295 295 294 294 294 293 293 293 292 292 291 291 291 291 291 290 289 288 288 288 288 288 288 288 288 287 287 287 287 287 286 286 286 286 287 287 287 288 288 289 289 288 288
320 318 318 317 317 318 316 316 315 312 313 315 314 314 313 313 314 314 314 314 314 314 315 316 316 316 316 316 316 319 324 319 312 311 310 306 304 303 303 302 302 302 301 300 300 299 298 298 297 297 297 296 296 295 295 295 294 294 294 293 293 293 292 292 292 291 291 290 290 289 288 288 288 288 288 288 288 288 288 287 287 287 287 286 286 286 286 286 286 286 287 288 288 289 289 288 288
319 320 318 316 317 318 317 317 319 316 314 314 315 314 314 314 315 315 314 315 314 314 315 315 316 317 317 318 319 322 324 317 312 311 309 307 304 302 301 301 301 301 300 300 299 299 298 298 297 297 296 296 296 295 295 294 294 294 294 294 293 293 292 292 292 291 291 290 289 288 288 288 288 287 288 288 288 288 288 287 287 287 286 286 286 285 285 286 286 286 287 287 288 288 288 288 288
316 321 321 317 317 317 319 321 322 322 319 317 318 317 315 317 318 317 317 318 316 315 315 315 316 316 317 318 318 322 323 316 312 310 308 306 303 300 300 300 300 300 299 299 299 299 298 298 298 297 296 296 295 295 295 294 294 294 294 294 293 292 291 291 292 292 291 290 289 288 288 288 288 287 287 287 288 288 287 287 287 287 286 286 285 285 285 285 286 286 286 286 287 288 288 288 288
314 323 327 321 319 321 323 323 322 324 321 318 320 320 317 316 316 316 317 319 318 316 316 316 316 316 317 317 317 322 323 316 313 310 307 305 303 301 300 299 299 300 299 299 299 299 298 298 298 297 296 296 295 295 294 294 294 294 294 293 293 292 291 291 291 291 291 289 288 288 289 288 288 288 287 287 287 287 287 287 287 287 286 286 285 284 285 285 285 285 285 286 287 287 288 287 287
318 325 329 322 319 322 323 322 323 323 319 317 320 321 319 315 314 316 317 317 317 316 316 316 316 315 316 315 318 324 323 316 313 311 307 305 303 301 300 299 299 299 299 299 298 298 298 298 297 297 296 295 295 294 294 294 294 294 294 293 293 292 292 291 291 290 290 289 289 289 289 289 288 287 287 287 287 287 287 287 287 287 286 286 285 284 284 284 285 285 285 286 286 287 287 287 286
320 322 322 321 320 320 319 320 322 321 317 319 322 321 319 315 314 317 317 315 316 316 315 315 315 315 315 314 316 324 322 316 314 311 307 306 303 301 300 299 299 299 299 299 298 298 298 297 297 297 296 295 295 294 294 294 294 294 293 293 292 292 291 291 291 290 290 290 290 289 289 289 288 287 287 287 287 287 286 286 286 286 286 285 284 284 284 284 284 284 284 285 285 285 285 286 286
320 321 319 320 320 318 317 318 318 318 317 319 323 321 317 315 316 319 317 316 316 316 315 314 315 315 316 314 315 321 323 317 314 311 308 305 302 301 301 299 299 299 299 298 298 298 297 297 297 297 296 295 295 294 294 294 294 293 293 292 292 291 291 291 291 291 291 291 290 289 288 288 287 287 286 286 286 286 286 286 286 286 286 285 284 283 283 283 283 283 284 284 284 285 285 285 285
318 319 318 319 320 317 316 316 316 318 318 317 321 320 316 316 319 319 318 317 317 316 314 314 315 315 315 315 316 322 324 318 314 312 309 305 302 301 300 299 299 298 298 298 298 297 297 297 297 296 296 295 295 294 294 294 293 293 292 292 291 291 291 292 291 291 290 290 289 288 288 287 287 286 286 286 286 286 286 286 286 286 285 284 283 283 283 283 283 283 284 284 284 284 285 285 285
317 318 315 318 321 319 317 316 317 319 319 318 321 320 318 317 318 317 316 318 317 315 314 314 315 315 315 316 319 324 323 319 315 313 311 308 304 302 300 298 298 298 298 298 297 297 297 297 296 296 296 295 295 294 294 293 293 293 292 292 291 292 292 292 291 290 290 289 289 288 287 287 286 286 286 286 286 286 286 286 286 285 285 284 283 283 283 283 283 283 283 283 283 283 283 284 284
318 319 315 319 321 320 321 321 322 322 319 320 323 321 319 316 315 316 316 316 317 315 315 316 316 317 317 318 324 326 323 319 316 313 311 308 305 303 300 297 297 297 297 297 297 297 296 296 296 296 295 295 295 294 294 293 293 292 292 292 291 292 292 292 291 291 290 289 288 288 287 287 287 287 286 286 286 286 286 286 285 285 284 283 283 282 282 283 283 282 282 282 282 282 283 283 283
315 317 318 322 322 319 321 323 325 324 320 320 320 321 322 317 315 318 316 315 317 315 316 319 320 321 318 323 330 328 323 319 315 312 311 308 305 304 300 296 296 296 296 296 297 296 296 296 296 295 295 295 295 294 294 293 293 292 292 292 291 291 291 291 291 290 290 289 288 288 288 287 287 287 286 286 286 286 286 286 285 285 284 283 282 282 282 281 281 281 281 282 282 282 282 282 282
311 314 317 320 322 318 318 321 321 320 320 319 318 323 323 315 316 321 317 315 316 315 317 319 322 323 320 327 333 329 323 320 316 313 312 309 306 302 298 296 296 296 296 296 296 296 296 295 295 295 295 295 294 294 293 293 292 292 291 291 291 291 291 291 290 290 289 289 288 288 288 287 287 287 286 286 286 286 286 285 285 284 283 282 281 281 281 281 281 281 281 281 281 282 282 282 282
313 315 316 317 320 318 317 320 318 318 321 319 317 323 321 313 315 318 315 315 316 316 317 317 319 321 320 326 333 331 324 320 317 314 312 311 308 301 296 296 296 295 296 295 295 296 295 295 295 295 295 295 294 294 293 293 292 291 291 291 291 291 291 290 290 289 289 289 288 288 288 287 286 286 286 285 285 285 285 285 284 283 282 281 281 281 281 281 281 281 281 281 281 281 281 281 281
316 316 317 318 320 319 318 321 319 317 320 318 315 319 317 313 315 316 314 314 314 314 316 315 317 318 317 321 329 330 325 319 316 314 312 311 309 302 297 296 296 295 295 295 295 295 295 295 295 295 294 294 294 293 293 292 292 291 291 290 291 290 290 290 290 289 289 288 288 288 287 286 286 286 285 285 285 285 285 284 284 283 282 281 281 281 281 280 280 280 280 280 280 280 280 280 281
317 318 319 318 320 320 318 319 320 319 319 317 315 316 315 313 316 317 316 316 314 313 314 314 316 316 316 319 324 327 324 318 314 312 311 309 309 304 298 296 297 296 295 295 295 295 295 295 295 294 294 294 294 293 293 292 292 291 290 290 290 290 290 290 289 289 288 288 287 287 287 286 285 285 285 285 285 285 285 284 284 283 282 281 281 281 280 280 280 280 280 280 280 280 280 280 280
316 317 318 318 320 322 319 317 319 319 317 316 316 316 314 313 314 314 314 317 317 314 313 314 314 314 316 319 322 326 324 318 313 312 310 308 308 305 299 297 297 297 296 295 295 295 295 295 294 294 294 294 293 293 292 292 291 291 290 290 289 289 289 289 289 288 288 287 287 286 286 286 285 285 285 286 286 285 285 284 283 282 281 281 281 280 280 280 279 279 279 279 279 279 279 279 279
313 313 314 315 316 320 321 318 317 316 315 315 315 316 314 313 314 313 314 317 317 314 314 315 314 315 317 319 322 327 327 321 315 312 309 307 306 303 298 297 297 297 296 296 295 295 294 294 294 294 294 293 293 293 292 292 291 290 290 289 289 289 288 288 288 288 287 287 287 286 286 285 285 285 285 286 286 285 284 283 282 282 281 281 280 280 279 279 279 279 279 279 279 278 278 279 279
313 312 314 313 312 315 318 318 316 316 316 315 315 315 314 313 314 315 315 316 317 316 316 317 316 317 318 319 322 326 327 323 316 312 309 306 305 301 297 297 298 297 296 296 295 294 294 294 294 294 293 293 293 292 292 291 291 290 290 289 288 288 288 287 287 287 287 286 286 286 286 285 285 285 286 286 285 285 284 282 281 281 281 280 280 279 279 279 278 278 278 278 278 278 278 278 278
315 313 313 313 313 314 315 316 316 316 315 314 315 315 314 313 315 315 314 316 317 317 317 317 320 321 321 323 327 329 328 326 322 316 311 308 306 302 297 297 297 296 296 295 295 294 294 294 294 293 293 293 292 292 292 291 290 290 289 289 288 287 287 286 286 286 286 286 285 285 285 285 285 285 286 286 285 284 282 281 281 281 280 280 279 279 278 278 278 277 277 277 277 277 277 277 276
Wind_Speed
4 4 4 4 5 7 5 2 1 2 2 4 5 3 2 3 4 2 2 3 1 1 3 2 3 3 2 2 3 3 4 3 1 2 1 3 10 9 9 10 9 11 11 9 7 6 7 9 9 8 8 9 8 8 8 7 5 5 6 7 6 6 5 6 5 4 5 5 4 4 4 4 4 4 5 6 7 7 6 6 7 6 6 6 6 6 6 6 5 6 6 6 6 3 3 4 4
4 4 4 4 5 4 2 1 1 3 3 4 4 1 4 4 3 3 3 3 2 3 5 4 5 5 3 3 4 3 4 5 4 3 3 9 11 8 11 11 10 11 11 10 8 5 6 8 8 8 8 8 7 7 7 6 5 5 6 7 7 6 6 6 6 5 5 5 3 2 2 2 3 4 4 5 7 7 6 5 5 5 5 5 4 5 6 6 6 6 6 6 5 5 4 4 5
3 2 5 5 4 3 2 0 2 3 3 4 1 2 4 4 4 3 3 5 6 6 6 5 4 4 3 2 2 2 1 3 7 5 4 11 10 8 13 12 11 11 12 10 8 5 5 7 6 6 6 5 5 4 4 4 4 4 5 5 6 6 7 7 6 6 5 4 2 2 2 3 3 4 4 5 6 6 5 5 5 5 5 5 4 4 5 5 5 5 5 5 4 4 4 4 5
2 0 5 6 3 3 2 1 3 3 4 3 1 1 3 4 6 7 6 6 6 6 5 2 1 2 2 2 1 2 3 3 6 7 5 8 8 12 15 13 10 10 12 8 7 6 4 6 5 4 4 4 3 3 3 4 4 4 4 4 4 4 4 5 5 5 5 3 1 1 2 3 3 3 4 4 4 5 5 5 5 5 5 5 4 5 5 4 3 3 4 4 4 4 5 5 6
2 2 4 5 2 1 1 2 3 3 5 4 1 1 1 4 8 8 5 5 4 4 3 2 1 1 1 0 2 1 2 2 7 9 8 8 10 15 15 13 10 10 11 7 5 5 5 6 5 5 5 5 5 5 5 5 5 5 5 5 4 4 3 3 3 3 2 1 0 1 2 2 3 3 3 4 4 4 4 5 5 5 4 4 4 4 5 4 5 5 5 5 6 7 7 8 9
3 3 4 3 1 0 1 3 4 5 5 4 2 3 2 4 8 9 6 5 4 5 4 1 2 1 1 1 2 2 2 3 7 8 10 12 12 14 14 13 10 11 11 9 8 5 7 8 7 7 7 8 8 8 8 7 7 7 6 5 5 4 4 3 2 2 1 1 0 1 1 2 2 3 3 4 4 5 5 5 6 6 6 5 5 5 5 5 6 7 7 8 9 10 10 11 11
4 3 3 2 2 0 1 4 5 5 3 3 2 2 3 6 8 8 6 4 3 3 2 0 3 1 1 3 2 3 3 5 8 7 12 16 15 14 14 13 12 12 10 9 9 7 8 9 9 9 9 10 10 9 9 9 8 8 7 6 5 5 4 3 3 2 1 1 0 1 1 2 2 2 3 3 4 4 5 6 6 7 7 8 7 7 7 7 8 9 9 10 11 12 12 13 13
3 1 1 1 2 1 3 5 5 6 2 1 2 3 3 7 8 7 6 3 2 3 3 2 3 1 2 3 1 3 5 6 9 10 13 17 17 16 14 12 13 13 11 9 10 8 9 10 11 11 11 10 10 10 9 8 8 8 7 6 6 5 5 4 3 3 2 1 1 1 2 2 3 3 3 4 4 4 5 6 6 7 7 8 8 8 8 9 9 10 11 12 13 13 13 14 14
3 2 1 1 2 2 4 5 6 7 2 3 4 2 2 6 6 5 6 4 3 4 6 6 5 3 2 3 1 2 6 9 12 13 13 16 17 17 14 13 13 14 12 10 10 10 11 12 13 12 12 11 10 9 8 8 7 7 6 6 5 5 5 5 4 3 3 2 2 2 3 3 4 4 4 4 5 6 6 7 7 7 7 8 8 9 9 9 9 10 11 12 13 13 14 14 14
3 3 0 1 3 3 5 5 5 4 2 3 4 4 2 5 4 5 6 5 6 4 6 7 5 5 3 3 2 1 8 14 15 15 14 15 18 17 14 13 15 16 13 11 11 11 13 14 14 13 12 10 9 8 7 6 5 5 5 5 5 5 5 5 5 4 4 3 3 4 4 5 5 5 6 6 6 7 7 8 8 9 9 9 9 9 10 10 10 10 11 12 12 13 13 14 14
2 3 1 1 3 4 5 4 3 0 4 3 3 4 3 4 3 3 5 5 7 5 6 7 5 7 5 3 1 3 13 18 17 17 16 17 19 17 15 15 15 15 14 13 11 11 14 14 13 12 10 9 8 7 6 6 5 5 4 4 4 4 4 4 5 5 5 5 5 5 5 6 6 7 8 8 8 8 9 9 9 10 10 10 11 11 11 12 12 12 13 13 13 14 14 14 14
1 3 2 2 4 4 5 5 5 2 3 3 4 5 4 4 3 3 5 5 6 7 6 7 3 3 5 4 2 7 16 17 16 19 18 19 19 17 16 16 15 15 15 14 11 11 13 13 12 10 8 7 7 6 6 6 6 6 6 5 5 5 5 5 5 5 6 5 6 6 6 6 7 7 7 8 8 8 8 8 9 9 9 9 10 10 10 11 11 12 12 13 13 14 14 15 15
2 3 1 3 4 5 5 5 5 4 2 2 4 6 5 4 5 5 5 5 6 6 6 9 2 1 4 2 1 6 12 16 17 19 20 19 18 17 15 16 16 16 16 14 12 12 13 14 12 10 9 8 8 8 7 7 7 7 7 7 7 6 7 7 7 7 7 7 7 7 8 7 8 7 7 7 7 7 7 7 7 7 8 8 9 9 9 10 10 10 11 12 12 12 13 13 14
2 3 1 3 4 5 5 4 4 4 3 2 4 5 4 3 4 4 4 5 6 2 3 9 5 2 3 2 1 4 10 18 19 20 20 17 17 17 14 15 16 15 16 16 14 14 13 14 13 12 11 11 10 10 9 8 8 7 7 7 7 7 8 8 9 9 9 10 10 10 10 10 9 9 8 8 8 7 7 8 8 8 9 9 10 10 10 10 10 10 11 11 12 12 12 12 13
1 3 1 3 4 5 4 5 3 3 2 3 2 2 3 2 1 2 4 4 3 0 1 5 5 3 2 3 3 3 14 22 21 20 19 17 17 17 14 16 16 15 16 16 15 15 14 14 14 13 13 12 12 11 9 8 8 7 7 7 7 7 7 8 9 10 10 10 10 10 10 10 10 9 9 8 9 9 9 10 10 11 11 12 12 12 12 12 12 12 12 12 12 12 12 11 11
1 3 1 3 4 5 3 3 1 1 1 3 2 2 3 2 3 1 1 0 1 1 0 2 5 2 1 2 2 9 22 25 22 21 20 18 17 16 15 15 16 15 16 16 16 16 16 16 15 15 14 12 11 11 9 8 8 7 7 7 6 6 6 7 8 9 9 9 10 11 11 10 8 9 9 9 10 10 11 11 11 13 13 14 13 13 14 15 14 14 14 14 13 13 14 13 13
1 1 2 3 4 5 3 3 1 1 2 4 4 3 4 3 2 1 1 1 3 2 3 4 5 5 2 3 8 18 26 25 23 23 20 19 18 16 15 15 16 16 18 18 17 18 17 17 16 16 15 13 12 11 9 9 8 8 7 6 6 5 5 6 6 7 7 7 8 9 9 6 5 8 8 9 9 10 12 12 12 14 14 15 15 14 15 16 15 15 16 16 15 16 16 16 15
1 2 3 4 5 5 2 2 1 1 1 3 5 5 4 3 3 2 2 3 5 4 6 5 6 6 4 9 14 22 26 25 26 24 21 20 18 17 17 18 19 19 20 20 19 19 19 19 17 16 16 15 15 13 10 10 9 8 8 7 6 6 5 5 5 5 6 6 7 7 7 5 4 7 7 8 9 11 13 14 14 15 15 16 16 16 17 17 17 17 18 18 16 16 16 15 15
3 3 3 5 5 4 1 2 3 1 2 1 4 6 5 4 5 4 1 5 6 8 9 7 9 7 7 10 16 23 25 26 26 24 22 21 21 19 19 20 21 21 22 24 22 21 21 21 19 18 18 18 16 14 11 11 10 9 8 8 7 6 6 5 5 5 5 6 6 6 5 5 4 6 7 8 10 11 12 13 14 14 14 15 16 16 17 18 18 18 18 19 18 17 17 17 17
4 3 3 6 4 4 3 2 1 1 3 3 3 4 5 5 3 4 3 6 7 10 9 8 11 11 9 10 16 22 22 23 24 24 22 23 23 22 21 23 24 25 25 26 25 23 22 22 21 20 19 19 17 15 13 12 11 10 9 9 8 7 6 6 5 5 5 5 6 6 5 5 4 5 8 8 9 10 11 12 12 13 14 15 16 17 17 17 17 17 18 18 19 20 20 20 20
3 4 5 7 3 4 5 3 3 3 4 3 6 2 3 5 3 4 4 6 8 10 10 11 13 14 12 11 15 20 19 19 22 22 22 22 23 23 23 25 26 26 25 25 26 25 25 24 23 22 20 20 18 16 15 14 12 11 10 9 9 8 7 7 6 5 5 5 5 6 6 6 4 5 7 8 8 10 11 11 12 14 15 16 18 18 18 18 18 18 18 18 19 20 20 20 20
2 5 7 9 7 5 3 4 4 4 3 2 5 5 4 4 4 6 7 8 9 7 7 9 10 12 13 14 15 17 16 16 19 20 21 22 24 24 23 24 24 24 24 26 28 28 27 26 25 25 23 21 19 18 16 15 14 13 12 11 10 9 7 7 6 5 6 5 6 6 5 6 3 3 6 7 8 9 10 11 13 15 16 17 19 19 19 20 19 19 18 18 19 19 18 18 18
3 6 8 10 10 8 3 1 2 1 1 4 4 4 3 4 6 6 10 14 13 7 4 3 1 2 8 16 15 15 15 15 17 21 24 25 26 27 26 24 25 26 27 28 29 29 29 27 27 28 26 23 21 19 17 17 16 13 13 12 11 10 9 8 7 6 6 6 6 7 6 5 2 2 5 5 7 8 9 11 12 14 16 17 18 19 19 20 20 19 17 17 18 19 18 18 17
4 6 8 10 10 8 6 1 4 3 5 7 4 2 2 8 7 5 12 17 14 11 9 6 1 5 9 13 14 14 16 16 20 26 29 29 30 31 30 27 26 27 28 28 28 29 30 29 29 29 27 26 24 21 20 20 17 15 15 14 12 11 10 10 9 8 7 7 6 7 6 5 3 2 3 4 6 7 9 10 12 14 14 16 17 18 19 20 19 18 17 17 18 19 19 18 17
7 8 9 8 6 6 6 3 5 6 6 5 5 5 7 10 6 8 16 16 12 11 11 9 5 6 8 11 13 14 14 16 19 24 27 28 29 29 29 28 25 27 29 29 29 29 31 31 30 29 28 27 26 24 22 20 19 18 18 16 15 14 12 12 12 9 8 8 7 7 6 5 3 2 3 3 5 6 8 9 11 12 13 15 16 17 18 19 19 18 17 17 19 19 19 18 18
4 6 7 6 6 6 6 7 7 7 5 4 6 10 10 8 6 11 19 18 13 10 10 10 8 7 8 10 12 13 13 15 17 21 25 26 26 26 28 29 27 28 30 30 30 30 31 32 31 30 29 28 27 26 23 20 21 21 19 18 18 16 15 14 12 10 10 9 9 8 7 6 4 2 2 2 4 5 7 9 10 11 12 13 15 17 17 18 18 19 18 17 19 19 18 19 19
2 5 7 8 10 10 8 10 10 8 6 8 9 11 10 6 5 10 16 12 11 12 12 12 10 9 10 10 10 12 13 16 20 21 20 21 24 26 29 31 31 30 30 31 32 31 31 32 32 30 30 29 28 27 24 22 22 21 20 20 19 18 18 16 14 13 12 11 9 9 7 6 5 3 2 1 3 4 5 7 8 10 11 11 14 16 16 18 18 18 16 16 17 18 18 19 18
4 5 8 10 11 12 12 13 12 7 6 9 10 9 9 5 6 14 16 7 5 10 12 12 12 12 11 11 11 10 11 17 22 20 17 20 26 29 30 33 35 32 30 33 33 31 32 33 33 31 30 29 27 27 25 23 23 21 21 21 20 20 19 16 16 16 15 12 10 9 8 6 5 4 2 1 2 3 5 6 7 9 9 10 14 15 16 18 17 17 15 14 16 16 17 18 17
4 3 7 12 11 12 15 14 12 9 5 7 6 5 9 9 13 19 18 10 6 8 10 10 12 12 11 11 11 9 11 15 18 19 22 27 30 32 33 35 37 33 32 33 33 32 33 34 33 31 30 29 28 27 26 24 23 22 22 21 20 21 19 18 18 17 16 14 11 10 9 8 6 4 2 1 2 2 4 5 7 8 9 11 14 15 16 16 16 16 15 15 16 16 18 18 18
5 3 5 9 9 10 13 13 12 10 5 8 8 3 8 11 17 19 17 12 10 10 10 10 9 10 10 9 10 11 12 13 15 21 28 31 31 33 34 35 36 35 32 31 33 34 34 34 33 32 31 31 29 27 27 25 23 23 22 21 21 21 20 19 18 17 16 15 13 11 9 8 7 5 2 0 1 2 3 5 7 7 9 11 13 14 15 15 16 16 16 17 17 17 18 18 19
4 5 5 5 4 7 9 6 9 9 4 9 8 5 9 9 12 16 16 12 10 11 12 11 10 9 9 9 11 12 12 13 19 26 30 32 32 33 33 33 35 35 33 32 35 35 34 34 34 33 32 32 30 28 28 26 25 24 22 22 22 20 20 19 18 17 16 14 13 12 10 9 7 5 3 1 1 2 3 4 5 6 9 12 13 14 15 16 16 16 16 17 18 17 18 19 20
3 2 4 5 4 7 8 2 12 11 4 8 9 4 9 10 13 12 11 10 11 11 11 10 11 11 11 11 12 12 11 14 20 26 28 30 31 30 31 32 33 36 36 35 35 34 34 34 34 34 33 33 31 28 27 26 25 23 22 22 21 20 19 19 18 17 15 13 12 12 11 9 8 5 3 2 1 1 2 3 4 7 10 12 14 14 15 16 16 16 16 15 16 18 19 21 21
4 4 6 6 5 8 6 2 9 10 5 7 10 6 7 8 10 7 6 10 11 10 11 10 12 11 12 12 11 11 10 12 15 20 25 28 29 29 29 32 34 37 37 35 35 36 35 35 35 35 34 33 31 28 27 26 24 23 22 21 20 20 19 18 18 17 16 15 13 12 11 9 8 5 3 2 2 2 2 3 5 7 10 13 14 15 15 15 16 17 17 15 15 18 21 22 22
4 6 6 7 8 8 6 2 5 7 7 7 12 10 12 10 8 6 4 9 10 10 11 12 11 10 11 11 11 10 10 12 12 15 23 27 29 29 29 31 33 35 36 35 36 37 36 35 35 34 33 32 31 28 27 26 24 23 22 21 21 21 19 19 19 18 17 16 15 14 11 9 7 5 4 3 2 3 3 4 7 9 11 13 14 15 15 15 15 14 16 16 16 19 21 22 23
5 6 5 6 7 7 9 5 2 8 7 7 9 10 16 16 12 11 11 10 10 11 11 12 13 13 14 13 12 11 10 13 13 15 24 28 29 29 28 30 31 32 33 33 35 35 34 34 34 33 32 32 31 29 28 26 24 24 23 21 22 22 20 20 20 19 18 17 16 15 12 9 8 7 5 4 3 4 4 5 7 9 11 13 14 15 14 15 14 13 14 17 18 19 19 20 21
10 10 7 7 6 8 13 10 4 10 7 8 12 12 16 16 13 12 13 13 13 12 11 12 13 13 14 14 11 10 12 13 12 17 26 28 29 29 28 28 29 31 31 31 33 33 33 33 33 33 32 32 32 30 29 28 26 25 24 23 24 23 23 21 20 20 18 17 18 16 12 10 9 8 6 5 4 4 5 5 7 8 10 11 13 14 14 14 14 14 15 17 19 19 19 19 18
12 11 9 7 7 10 14 12 5 10 7 9 14 13 16 16 14 13 12 12 13 13 13 13 13 13 14 14 12 11 13 10 9 18 25 28 28 28 26 26 28 29 29 31 33 33 33 34 34 34 33 34 34 33 32 31 30 29 27 27 27 26 25 23 21 20 19 19 18 16 13 11 11 9 7 6 5 5 5 5 6 7 9 11 12 13 13 14 14 15 16 16 17 18 21 20 18
12 9 7 7 8 11 14 11 5 8 6 8 11 11 14 16 13 12 12 12 14 14 15 16 16 16 15 14 14 13 8 3 8 12 17 23 24 24 25 26 29 30 29 31 34 34 34 35 35 35 35 35 36 36 35 34 34 32 31 31 30 28 27 26 24 22 21 20 19 16 13 12 12 10 8 7 6 6 5 5 5 6 8 9 11 12 13 14 14 14 14 16 16 16 19 20 19
9 7 5 7 9 10 12 9 2 4 3 6 9 10 12 15 14 13 14 14 14 15 16 17 16 16 15 13 14 11 4 6 8 9 11 17 21 24 25 26 29 31 30 32 34 34 35 35 36 36 37 37 36 36 37 35 34 33 31 30 29 27 25 25 24 22 22 21 19 16 14 13 12 11 10 9 7 6 6 5 5 6 7 9 10 12 12 13 14 13 12 13 15 16 18 19 16
7 6 6 8 10 8 8 5 2 4 5 6 9 9 10 13 13 15 17 18 16 16 17 17 15 14 15 15 13 9 7 8 9 9 9 12 17 22 24 26 29 30 30 32 35 35 36 37 38 38 39 38 37 37 37 35 32 30 27 26 27 26 24 22 22 22 23 22 20 17 15 15 13 12 11 9 8 7 6 6 6 7 7 8 10 11 12 13 13 13 11 11 13 15 17 19 16
8 7 8 10 12 11 10 7 2 3 6 5 6 9 9 10 12 14 13 14 15 13 14 14 14 14 15 15 13 9 9 10 10 11 10 10 13 18 23 27 29 30 31 34 37 37 37 39 40 40 40 39 38 37 36 34 32 30 27 25 25 24 23 23 24 24 24 23 21 19 17 16 15 13 12 10 9 8 7 7 7 7 8 8 10 11 12 13 13 12 11 12 13 15 17 19 19
9 7 12 16 15 13 13 9 5 3 5 2 2 7 9 7 10 12 6 7 10 9 11 13 14 15 13 12 12 9 8 10 11 12 12 11 11 16 21 26 28 30 33 35 38 39 38 39 40 40 39 39 37 37 36 35 35 35 34 33 31 28 26 27 29 29 28 25 22 19 17 17 16 15 13 11 9 8 8 8 8 8 9 9 10 11 12 12 13 12 11 12 14 15 16 16 18
9 4 7 12 12 11 10 7 2 1 5 2 4 3 10 8 7 9 6 6 8 8 10 13 13 13 12 10 11 8 8 10 10 10 11 12 12 14 18 25 30 31 33 35 37 38 38 38 39 39 39 38 37 37 37 38 38 38 38 37 35 33 31 30 32 31 28 25 22 20 19 18 17 15 13 11 10 10 9 9 9 9 9 10 11 12 13 13 13 12 11 12 14 15 15 16 18
6 2 1 2 4 6 5 3 4 3 4 4 4 4 9 14 6 8 10 8 8 9 10 12 13 13 13 13 11 8 10 11 10 10 11 13 13 15 19 26 32 33 33 35 36 37 38 37 38 39 38 38 37 37 39 40 40 39 38 36 34 34 32 30 30 27 25 24 22 22 21 20 18 15 13 12 11 11 10 9 9 10 10 11 11 13 14 13 12 12 12 13 14 15 16 17 17
5 1 1 3 1 1 1 1 4 2 4 4 5 7 5 15 6 7 10 10 10 12 13 13 14 14 14 14 12 9 10 11 11 12 13 13 14 19 24 28 31 32 33 35 36 37 37 37 37 37 37 37 38 39 40 40 40 39 38 36 33 31 29 27 27 26 25 25 25 24 22 20 18 15 14 13 13 12 10 10 10 10 11 11 12 13 13 13 12 13 14 14 15 16 16 16 17
4 2 3 5 2 1 2 2 2 2 4 6 6 8 4 15 8 5 7 7 9 12 12 13 13 14 13 13 13 9 9 9 10 11 12 13 16 22 25 26 28 30 32 34 35 35 36 37 37 38 38 38 38 40 41 40 39 38 37 36 33 30 27 26 28 28 28 27 27 25 23 20 18 16 15 14 13 12 11 10 11 11 11 12 12 13 12 12 12 13 13 13 14 15 16 16 17
3 3 2 2 1 1 1 2 2 1 9 7 10 13 9 10 5 6 6 6 9 9 8 10 10 12 13 11 11 9 9 8 9 10 10 11 15 20 23 23 27 30 31 32 34 35 36 37 38 39 38 37 38 39 40 40 39 38 38 37 35 32 31 30 31 31 29 28 27 25 23 21 18 16 15 15 14 12 11 11 11 11 12 12 12 12 12 12 11 12 12 12 13 14 15 15 16
3 4 2 1 3 2 2 1 3 2 10 5 11 15 13 11 5 3 4 7 10 10 8 9 11 12 13 11 9 9 9 9 9 9 9 10 12 15 19 21 25 28 29 32 34 36 36 37 38 38 37 37 38 40 41 41 40 39 38 37 36 35 35 35 34 33 32 31 29 27 24 21 18 17 16 15 14 12 12 11 11 12 12 12 11 10 10 10 11 12 13 14 15 15 15 15 16
3 5 4 1 3 2 1 2 2 5 10 5 10 13 11 14 10 5 7 7 9 10 9 11 12 11 12 11 9 8 8 9 10 10 9 10 11 12 14 18 23 27 31 34 35 36 36 37 38 39 39 39 39 40 42 41 41 40 38 38 37 36 36 36 35 34 34 33 31 28 26 23 21 20 19 17 15 13 12 12 12 13 12 11 11 10 11 12 14 15 15 15 15 15 15 16 17
7 6 6 5 4 3 4 4 3 6 9 7 7 10 6 9 7 10 15 14 13 11 9 10 10 9 11 10 7 7 8 9 9 10 10 10 12 12 13 18 23 27 31 34 35 36 37 37 39 40 40 39 40 41 42 42 42 41 39 38 38 37 37 37 35 35 34 33 31 29 28 26 24 23 21 18 15 14 13 13 13 14 14 13 13 13 13 14 14 15 14 14 15 15 15 15 17
9 6 5 6 5 3 4 5 7 7 6 5 3 6 4 4 2 10 15 15 14 12 10 10 9 9 10 5 6 7 7 8 8 9 10 10 11 11 12 18 23 27 31 33 34 36 36 37 40 42 41 41 41 42 42 43 43 41 40 39 39 38 38 37 36 35 34 33 31 30 28 26 25 23 20 18 16 16 16 16 16 16 16 15 14 13 13 13 13 13 13 14 15 15 15 16 17
6 4 3 6 5 4 5 7 9 5 5 5 4 4 6 6 7 10 11 10 11 9 9 10 9 10 11 5 6 7 7 7 7 8 9 9 9 9 12 17 22 25 29 32 34 36 38 39 41 43 43 43 43 43 43 44 43 41 41 41 40 39 38 38 37 35 34 33 32 30 29 27 25 23 22 20 19 19 18 18 18 17 16 15 14 13 12 12 12 12 13 15 16 15 15 17 18
3 4 5 6 3 5 6 8 7 3 5 9 6 6 7 8 12 12 13 14 13 11 11 10 10 13 14 9 6 7 7 7 8 8 9 9 9 10 13 18 21 25 29 33 36 40 42 42 41 42 42 41 42 44 44 43 42 41 41 41 41 41 40 39 39 37 35 33 31 30 29 27 26 25 23 22 21 20 19 18 18 17 15 14 14 13 12 12 12 13 14 16 16 15 16 17 18
6 3 5 2 3 1 3 2 4 3 7 9 8 10 10 10 10 5 4 10 12 12 12 12 13 16 14 9 8 8 8 8 8 8 8 9 9 9 14 19 23 26 29 33 37 40 42 42 41 42 42 43 45 45 44 43 43 42 42 42 42 42 42 40 40 38 36 34 32 30 29 28 27 25 24 22 21 20 19 18 18 17 16 15 14 13 12 12 12 14 15 16 16 15 16 18 19
5 2 2 3 1 1 3 2 3 5 7 7 9 11 11 12 12 8 5 7 10 11 12 12 14 15 10 8 9 8 7 7 7 8 8 8 10 10 14 19 24 27 28 31 33 36 38 39 39 40 42 44 44 43 42 42 43 42 42 42 42 42 41 40 39 38 37 36 34 32 31 29 28 26 24 23 22 21 20 19 18 17 16 15 14 13 12 12 13 14 14 15 15 15 16 19 19
2 4 4 1 2 3 3 3 3 5 6 7 10 10 12 12 8 7 10 8 10 9 8 9 11 11 8 7 8 6 7 8 8 9 9 10 11 12 16 20 23 25 27 28 30 33 35 37 37 38 39 40 40 40 42 42 43 42 40 40 41 41 40 40 39 38 38 37 36 34 33 30 28 26 25 23 22 21 20 19 18 17 16 15 14 13 13 13 13 13 14 15 16 16 17 19 21
3 1 2 3 2 1 1 2 3 5 6 6 7 8 14 10 2 1 5 4 9 10 8 9 9 8 8 7 7 6 7 8 8 8 9 10 10 11 15 20 22 23 25 26 29 31 32 33 35 38 38 38 40 41 42 43 43 42 41 41 41 40 40 39 38 38 38 37 36 35 33 31 29 27 25 24 22 22 20 19 18 17 16 15 14 14 13 13 13 14 15 16 17 17 18 20 22
7 7 8 8 7 4 3 6 6 4 4 6 7 8 15 10 4 5 5 3 3 5 5 5 5 7 8 7 8 8 8 8 9 9 9 9 10 9 13 18 20 22 24 26 28 28 29 32 34 36 37 39 41 42 44 44 42 42 42 42 41 40 39 39 38 38 38 37 36 34 33 31 29 27 25 24 23 22 20 19 19 18 17 16 15 14 14 13 14 15 16 17 17 17 19 21 22
Wind_Direction
51 30 16 349 320 319 298 237 290 247 210 260 257 209 105 75 107 125 135 96 94 124 75 75 44 26 83 28 333 43 56 34 32 155 192 148 143 151 135 116 114 113 112 108 90 80 94 99 90 86 85 81 81 84 86 94 113 109 93 84 81 79 77 73 70 75 72 63 61 68 73 74 61 44 37 40 42 38 36 41 42 41 46 51 44 30 24 20 16 14 12 10 11 355 301 306 318
71 357 318 312 294 296 307 158 281 256 212 249 261 149 115 100 123 151 163 134 85 73 68 50 33 48 59 360 328 6 51 48 78 105 103 133 136 150 146 123 119 119 111 115 113 102 103 101 94 94 90 89 92 93 93 103 122 119 105 94 92 95 92 87 83 83 80 83 91 94 85 65 49 38 38 44 48 47 35 30 29 22 26 37 44 34 24 19 17 17 13 9 7 355 324 312 309
107 300 286 289 266 242 301 323 261 282 275 264 336 75 126 119 127 103 85 93 84 83 72 53 36 37 5 307 325 351 108 80 92 93 113 146 144 155 157 128 122 127 116 119 127 134 123 110 110 104 95 100 103 105 107 112 123 127 127 109 99 99 93 89 88 87 85 92 90 62 42 34 37 39 40 42 45 41 25 17 14 6 4 8 15 23 23 16 22 28 26 21 11 356 339 329 319
121 48 298 298 259 206 262 214 236 277 282 285 46 136 143 128 116 86 74 82 84 101 93 73 71 36 332 262 333 27 125 92 92 105 129 159 157 161 158 128 124 132 118 120 142 153 134 125 135 126 119 124 123 128 131 136 141 143 150 146 132 127 113 99 94 90 85 86 46 4 1 5 12 24 31 30 32 28 20 15 10 6 3 4 4 13 12 354 348 357 11 10 353 343 337 331 324
76 25 298 305 304 210 293 248 257 246 260 297 79 150 126 121 112 96 91 87 81 100 98 121 120 55 89 249 328 42 136 100 92 100 115 133 144 156 149 127 129 128 118 121 151 170 152 148 148 143 144 139 142 143 143 145 146 150 152 158 158 158 153 134 122 110 100 86 13 352 345 356 5 11 18 20 25 24 24 20 13 9 5 8 9 15 11 352 334 322 320 319 314 316 322 321 319
353 330 256 278 284 11 328 266 271 251 258 312 60 121 134 110 107 109 104 82 65 65 62 122 112 41 108 114 54 74 141 138 111 105 130 141 149 156 140 129 136 130 128 137 151 162 153 159 157 149 150 145 144 141 141 142 142 146 145 149 152 155 154 147 143 135 133 121 40 352 344 347 1 7 12 15 18 18 19 16 11 7 2 1 0 4 4 359 348 335 324 319 315 314 317 319 318
320 319 220 222 255 117 262 261 267 268 290 337 39 90 102 101 108 119 125 105 76 74 49 246 103 39 242 131 84 85 111 134 137 144 154 156 158 151 136 137 142 136 139 159 175 173 156 161 162 158 155 148 143 139 138 138 139 139 138 139 140 143 144 144 147 140 137 125 80 357 346 344 359 8 9 9 9 10 9 8 6 2 359 356 354 354 353 352 348 341 334 328 327 326 325 324 322
285 313 136 227 259 172 234 256 258 265 278 24 61 45 53 107 126 134 153 165 147 156 176 196 113 89 233 151 215 154 128 128 143 152 155 160 162 149 141 147 145 141 148 174 193 185 170 166 164 161 155 150 143 140 137 138 140 138 137 135 133 134 136 138 140 138 130 114 64 18 359 1 7 12 12 13 10 10 10 9 7 4 1 358 354 352 351 349 346 342 336 331 329 328 327 325 323
225 220 36 8 257 235 240 241 249 256 198 140 102 71 13 117 144 151 167 167 136 173 175 172 153 151 181 159 220 176 146 136 138 146 155 164 163 150 144 155 154 153 159 180 197 188 179 172 166 163 157 153 147 144 143 143 141 139 140 135 133 128 127 127 126 125 114 92 65 40 24 21 19 22 20 19 16 16 17 16 16 13 10 5 1 357 355 351 347 342 337 333 330 329 326 325 322
196 201 280 318 252 263 257 242 246 252 119 95 101 133 153 128 165 174 177 170 148 176 165 159 175 193 211 177 183 217 166 152 145 148 158 165 160 152 149 162 167 162 163 178 195 189 183 177 171 166 161 157 153 154 153 153 151 149 149 142 138 130 125 120 116 109 100 84 69 57 48 45 39 38 36 34 30 26 25 24 24 23 20 17 13 8 5 1 355 350 344 340 337 335 331 328 325
200 195 208 284 259 254 257 274 294 296 107 99 103 132 137 137 192 196 200 191 154 151 138 143 189 215 235 235 226 132 153 157 158 157 161 164 158 156 158 167 171 168 168 177 193 190 184 182 177 172 168 166 163 167 170 172 174 170 170 164 155 145 131 117 112 100 91 83 72 65 56 52 47 43 43 43 41 38 35 32 29 26 24 20 16 12 8 5 360 356 351 348 345 343 340 337 333
247 217 172 234 255 257 275 310 320 346 115 164 155 136 132 151 199 213 211 213 161 146 151 165 176 203 214 239 238 136 150 165 169 163 164 165 160 161 168 170 168 174 179 179 189 189 184 185 183 182 178 179 180 184 191 188 188 186 184 180 172 160 143 128 116 106 98 92 84 78 71 67 62 57 54 53 51 49 44 40 37 31 27 22 18 13 8 4 1 359 356 355 352 350 347 343 340
241 267 206 247 257 272 291 305 310 326 309 221 144 134 137 163 197 217 213 226 193 169 178 185 150 62 214 241 136 153 164 175 170 166 166 164 163 164 171 173 171 180 184 178 184 187 186 190 191 191 188 191 196 199 201 196 193 187 181 175 167 158 146 138 129 124 119 111 106 99 95 91 85 82 78 73 68 64 58 50 44 38 33 27 22 16 13 9 4 2 0 359 358 356 354 351 348
256 290 309 274 284 283 288 282 286 304 298 50 78 120 142 184 199 214 229 241 216 198 192 181 152 79 240 254 176 196 178 173 168 167 163 161 166 164 170 177 177 184 185 182 188 189 188 196 197 195 196 198 202 204 202 196 187 178 171 164 156 147 137 130 124 120 114 109 107 105 103 98 94 90 85 81 72 64 60 51 42 38 33 27 24 22 18 15 12 9 5 3 1 360 359 357 354
284 307 306 268 285 280 274 257 259 282 289 79 77 129 156 213 154 228 242 243 226 303 35 163 150 115 217 218 221 183 163 167 165 164 160 161 167 164 173 179 180 186 185 187 193 191 190 199 198 195 199 200 205 205 198 192 181 171 165 157 148 136 123 114 109 103 97 95 93 92 87 79 75 75 71 68 62 52 46 39 34 34 32 29 28 26 24 22 21 17 13 11 9 7 6 3 3
250 317 289 256 271 270 255 233 242 270 244 112 185 150 162 204 100 216 233 117 244 186 6 185 184 193 253 205 200 141 152 162 162 160 159 161 164 167 178 181 184 191 187 188 195 194 193 201 199 195 198 197 204 204 195 190 181 173 167 159 147 130 115 104 101 96 92 87 81 74 69 60 48 52 50 46 46 41 39 33 32 36 33 33 31 31 30 26 23 21 19 17 16 15 14 15 14
199 303 246 257 256 261 247 204 163 202 169 125 190 171 182 209 124 168 117 249 254 181 207 215 204 234 263 131 141 142 150 158 157 157 159 161 164 170 180 183 187 195 192 190 196 196 195 200 200 197 196 191 200 208 198 190 184 176 172 163 148 133 121 113 108 104 99 94 86 78 80 81 51 48 44 38 40 37 37 32 32 33 28 29 29 30 28 23 21 21 19 18 17 13 11 13 10
181 205 224 242 245 251 268 301 355 112 120 138 180 188 213 218 167 152 90 238 247 232 234 216 212 223 149 129 140 146 152 157 158 160 162 166 171 175 183 188 190 195 196 195 197 198 197 199 199 197 195 192 199 209 202 192 189 182 177 171 157 148 144 136 127 115 107 104 98 89 93 101 74 55 48 41 38 34 33 29 28 26 21 22 22 22 20 17 17 17 14 13 15 8 4 6 3
202 238 249 241 255 255 222 332 358 44 334 310 171 184 221 221 170 144 175 227 217 232 242 221 224 213 138 139 149 150 155 159 164 168 170 176 181 184 187 190 193 195 199 199 197 200 201 199 197 197 199 198 201 206 203 194 193 189 181 176 169 163 162 157 142 128 119 116 108 100 95 94 74 52 47 41 37 34 31 26 24 21 17 17 17 17 15 13 13 13 10 6 7 4 2 2 358
212 232 261 252 276 311 291 318 334 359 357 308 257 184 200 232 180 125 208 245 225 227 231 213 225 219 178 163 157 156 162 167 172 177 179 186 189 190 189 190 194 196 200 201 198 199 202 202 198 200 204 202 203 204 200 194 193 192 186 181 179 173 169 165 152 143 133 125 121 113 99 93 77 48 48 42 36 34 31 26 20 17 15 17 16 15 15 13 10 10 7 4 2 1 360 358 354
217 197 234 263 291 321 315 2 16 20 39 309 288 268 203 234 219 154 191 250 244 233 228 217 220 218 195 171 167 167 171 176 181 186 188 191 194 197 197 195 198 198 199 199 199 200 200 203 200 200 206 204 204 202 196 194 191 191 189 183 184 181 175 171 160 152 142 133 127 114 92 87 76 42 48 44 38 32 27 22 16 15 14 15 14 11 13 10 9 8 5 3 2 360 358 355 353
252 234 244 266 271 276 307 47 45 38 49 303 282 270 246 223 221 199 198 228 239 229 226 226 224 223 198 175 174 174 178 184 187 193 195 196 198 201 202 200 198 198 198 197 198 200 199 202 201 200 204 203 201 200 194 194 192 190 192 185 184 186 179 172 171 169 150 137 129 117 99 95 90 42 46 42 35 26 21 19 14 13 10 10 10 8 9 8 7 7 4 2 359 358 356 354 353
234 252 248 261 268 270 269 92 100 84 213 235 248 271 271 237 240 227 219 231 239 239 241 247 252 236 176 170 172 177 187 190 192 198 199 199 200 201 202 199 196 195 196 197 197 198 197 198 200 200 203 201 198 196 192 195 192 188 195 188 184 190 181 171 180 187 164 151 143 133 129 122 119 58 48 39 32 20 15 16 11 11 8 7 8 6 5 6 6 4 2 359 356 356 356 356 354
226 258 260 270 279 275 274 237 146 187 230 237 258 338 273 235 239 242 239 240 240 245 257 256 166 96 124 156 175 185 191 196 200 203 202 203 203 203 202 199 198 196 195 196 195 196 196 196 199 200 202 200 196 191 192 198 188 183 196 187 182 189 179 178 187 190 177 168 158 147 147 142 148 97 61 36 28 18 12 14 9 9 7 5 6 5 3 3 3 1 360 356 355 355 354 356 352
226 251 258 265 276 271 271 247 179 204 231 242 265 271 245 238 251 262 254 252 244 237 245 244 206 150 144 164 183 192 197 202 205 206 206 209 208 205 204 202 199 196 195 195 193 195 195 196 197 199 200 200 195 190 194 196 184 188 196 186 185 186 179 187 190 187 187 178 164 163 161 154 169 134 73 35 26 17 10 11 7 7 6 3 3 3 2 0 359 358 359 356 353 350 351 353 349
225 257 276 285 287 282 264 248 219 214 222 211 237 250 247 247 268 265 254 253 255 246 239 235 212 191 189 185 188 194 201 205 206 207 207 209 207 206 205 204 201 199 198 195 193 195 195 194 196 197 197 198 196 192 193 191 188 195 195 190 192 185 185 194 185 180 194 191 173 171 171 165 176 156 90 39 27 13 8 8 4 5 4 0 0 2 1 358 356 358 359 353 346 345 346 347 343
313 298 301 297 288 285 267 258 243 222 221 205 215 244 252 244 238 254 252 246 243 240 239 235 222 216 211 206 202 198 203 209 207 205 204 204 203 205 205 203 204 203 198 195 195 195 194 193 194 195 195 197 197 194 189 188 194 197 191 193 194 187 191 192 179 182 195 196 181 176 176 173 180 170 145 64 26 11 9 5 3 4 0 360 0 359 357 355 356 357 356 346 341 341 339 339 339
328 324 309 285 276 272 254 252 247 225 223 206 204 249 264 241 219 244 250 243 221 224 231 230 224 227 218 214 216 205 209 212 207 202 199 200 202 205 203 203 205 203 198 196 194 193 192 193 192 192 193 195 197 193 187 189 196 195 192 194 192 191 194 186 181 189 196 196 188 183 179 177 188 184 167 95 36 12 11 4 5 2 354 358 359 355 353 354 354 352 350 343 340 338 334 336 337
308 334 303 283 278 269 253 245 231 211 211 180 166 265 264 232 226 243 250 242 227 228 232 227 221 226 222 216 219 216 217 210 204 204 206 207 206 205 205 205 204 201 200 197 192 193 193 192 191 190 191 193 194 192 187 191 195 194 194 194 193 194 191 185 187 193 198 197 191 192 184 180 193 191 187 106 52 10 11 4 3 355 345 354 356 352 351 352 349 347 347 342 339 338 337 335 331
273 261 260 280 291 271 254 244 214 194 182 147 142 256 253 234 230 236 247 239 220 226 232 230 225 224 223 219 220 223 219 209 206 209 210 210 208 207 206 207 204 201 199 194 192 194 193 191 190 189 190 191 191 190 188 190 192 193 193 193 197 195 187 186 190 193 200 198 192 196 188 186 196 191 202 222 47 3 7 2 357 344 337 350 353 349 350 349 346 345 344 339 338 340 336 330 325
261 272 253 257 278 272 270 247 181 172 166 150 152 248 253 256 247 233 238 228 201 215 228 226 226 224 224 223 225 228 220 214 215 214 211 210 210 208 206 205 203 201 197 193 194 193 191 190 189 187 189 191 188 188 190 189 190 192 190 193 198 193 186 187 189 192 199 201 196 195 190 193 200 196 203 238 303 347 356 351 346 328 331 348 349 347 348 346 345 343 340 336 337 336 328 324 323
219 252 266 233 224 263 280 207 167 171 177 169 161 240 255 256 262 246 227 207 190 210 226 223 224 225 226 228 229 230 226 222 220 218 214 211 211 209 206 203 200 199 197 194 193 190 190 189 188 187 188 189 186 187 190 189 191 192 188 195 198 188 184 187 191 192 193 199 203 198 194 197 204 207 209 223 261 311 330 331 329 323 335 347 345 346 347 346 344 338 335 335 333 327 322 321 322
211 194 246 243 235 264 271 207 188 173 132 187 195 229 259 239 247 248 177 180 189 212 229 225 225 227 228 234 234 227 227 228 223 219 215 210 211 210 205 202 200 199 197 193 190 188 189 188 187 187 187 188 185 185 189 187 190 190 188 194 192 183 184 189 191 192 190 194 205 207 201 200 209 213 213 219 234 274 302 316 321 327 339 345 343 344 345 344 341 335 334 335 327 320 318 319 321
234 209 235 244 240 257 261 274 237 190 142 197 212 229 254 248 248 262 203 189 194 211 232 239 240 243 242 243 240 231 222 224 223 213 209 207 208 209 205 202 201 198 195 193 190 188 188 186 186 186 186 186 184 184 185 184 186 184 184 191 188 181 184 190 192 192 193 192 201 212 206 202 215 216 217 226 234 269 295 312 323 335 341 343 342 341 342 341 340 336 330 325 317 313 314 316 319
247 242 255 260 249 252 255 274 222 190 187 215 218 230 249 254 255 261 258 243 228 226 234 247 251 253 253 251 246 241 228 223 222 207 203 203 203 205 204 201 199 195 192 191 189 187 185 184 184 185 184 183 182 183 182 181 180 179 181 185 186 183 183 190 194 193 195 195 201 211 209 206 221 221 220 230 244 273 297 315 327 337 339 339 338 337 339 338 335 330 316 311 312 313 312 315 319
258 266 271 269 272 267 261 274 203 181 196 223 223 233 247 254 251 248 253 252 250 245 239 244 250 253 254 252 247 240 237 233 214 198 197 197 200 200 198 196 194 191 188 186 184 183 183 181 181 182 182 181 181 181 180 178 176 177 180 182 184 185 186 189 194 194 195 199 205 210 207 206 221 224 224 237 253 273 293 313 326 335 335 334 334 334 335 332 325 316 307 307 314 319 321 322 324
255 265 269 265 269 270 270 279 230 182 191 225 227 236 248 256 255 248 250 252 255 255 250 249 250 254 257 256 253 242 241 235 187 184 188 190 196 195 191 189 186 183 182 182 181 181 182 181 180 181 180 182 182 182 181 180 178 178 181 184 186 187 189 189 191 193 195 201 209 210 204 204 216 223 229 239 252 269 288 310 324 332 332 330 330 330 327 321 314 310 310 312 316 320 321 322 324
251 257 267 272 264 265 273 279 233 181 196 239 241 248 254 258 261 257 252 250 251 251 252 255 253 255 260 260 258 249 239 183 148 165 175 181 187 186 184 182 179 178 178 179 180 181 183 183 183 182 181 183 186 186 184 184 185 185 187 189 189 188 192 194 192 192 196 203 209 209 205 207 214 221 227 236 248 263 280 301 315 322 324 324 323 320 315 312 309 310 312 314 315 312 309 313 323
259 266 273 274 268 272 278 273 202 157 199 253 256 260 262 263 263 260 254 248 247 245 246 251 253 257 261 259 259 254 211 144 149 153 160 171 174 175 176 177 179 179 177 179 181 182 183 184 185 184 184 186 188 189 188 188 189 191 192 191 190 189 192 197 197 194 197 202 207 207 206 211 215 218 224 233 243 257 271 287 301 310 314 315 313 309 306 303 301 302 303 305 306 303 299 304 316
246 250 260 262 261 268 276 264 166 161 206 245 266 270 266 267 266 258 254 250 248 247 246 250 252 253 256 255 258 246 194 166 162 158 159 164 165 170 174 175 178 178 178 179 181 182 183 185 187 187 188 189 189 190 190 190 189 189 192 191 189 189 188 190 193 194 197 201 204 205 206 211 216 219 224 232 241 255 269 280 293 301 304 304 301 297 293 291 291 294 300 297 294 293 293 297 303
237 219 230 251 256 251 256 267 270 212 227 243 280 286 266 249 250 253 250 245 246 245 245 252 253 251 253 255 255 232 185 169 168 168 168 164 168 175 176 175 177 179 181 182 183 184 186 188 190 190 191 191 191 191 189 188 185 182 181 178 177 179 177 178 181 186 193 199 202 203 205 209 214 219 225 233 243 255 268 277 288 292 293 292 287 284 279 281 284 288 292 288 284 283 285 291 296
259 210 216 240 254 257 262 286 338 331 278 258 28 311 277 211 216 247 249 222 234 234 232 242 250 254 253 253 253 227 178 172 176 175 172 170 174 177 178 178 180 184 187 187 187 188 189 190 191 192 192 191 191 190 188 187 184 180 177 172 171 172 173 180 186 189 193 197 200 202 204 209 213 217 223 232 242 251 262 272 279 282 285 283 277 273 269 270 275 278 281 280 279 280 279 284 291
271 224 218 241 256 264 266 285 328 255 262 252 92 349 288 260 216 240 248 211 221 224 225 233 241 252 253 250 248 216 175 179 181 178 172 171 173 176 182 185 186 189 191 189 190 190 191 192 192 192 193 192 191 190 188 188 185 184 183 181 181 182 183 189 195 198 199 199 198 199 202 207 212 216 221 230 238 245 254 263 270 276 277 275 269 264 264 265 268 271 273 272 271 273 274 277 283
261 228 218 233 249 261 255 257 238 232 291 278 172 140 279 282 247 206 221 217 227 232 228 234 237 244 250 252 244 199 177 184 178 177 176 175 180 183 188 191 192 193 191 190 191 192 193 193 192 193 193 193 192 190 190 190 189 188 188 188 189 191 192 195 197 198 201 199 194 195 199 205 210 215 221 226 232 239 247 255 263 269 269 268 265 261 263 265 266 268 266 263 263 267 271 275 279
244 190 111 102 121 273 105 215 246 285 332 281 198 144 249 281 272 174 200 206 225 235 228 233 235 238 243 247 245 207 182 187 178 176 180 179 186 189 191 193 194 194 192 192 193 193 193 193 193 194 194 194 193 192 193 193 193 192 192 192 193 195 196 196 195 190 190 191 189 191 196 201 207 212 217 224 229 234 240 249 257 262 264 263 260 260 263 264 265 266 265 264 264 267 268 270 274
217 146 80 79 86 38 86 224 262 347 291 247 191 151 216 279 278 155 181 200 217 230 228 229 231 235 238 239 243 219 181 189 182 176 182 183 188 191 191 191 192 194 194 194 194 193 194 193 193 194 195 195 194 194 195 194 195 196 196 196 195 194 192 190 188 183 183 186 187 190 193 197 203 209 215 221 226 230 235 244 251 256 259 258 259 262 266 268 268 268 269 271 271 270 269 267 269
154 128 75 51 308 22 86 234 99 353 270 241 190 180 193 272 286 137 171 200 200 210 222 230 232 239 242 237 236 211 177 183 181 177 181 180 184 185 185 186 189 192 193 193 193 193 194 193 194 195 195 196 195 195 196 196 197 199 200 199 196 192 188 184 182 182 184 187 189 192 194 197 201 207 214 218 223 227 233 242 248 252 253 255 260 265 269 273 273 271 270 269 267 266 268 270 270
119 119 116 3 307 12 26 301 98 228 267 224 177 185 192 233 254 144 207 205 193 202 202 214 226 235 244 243 229 201 178 174 170 175 176 168 173 177 180 184 185 187 189 191 193 194 195 194 194 195 195 196 197 196 197 198 199 201 202 201 197 193 189 186 185 185 188 190 192 194 194 195 196 201 207 213 221 228 233 240 245 248 251 256 264 269 273 272 268 265 263 262 263 262 263 265 265
145 132 134 141 280 309 312 248 146 225 256 224 178 182 201 238 246 232 249 227 201 210 197 204 217 222 239 245 225 193 171 169 169 173 174 171 176 178 180 183 182 184 189 191 193 194 195 196 195 195 197 197 197 197 198 199 201 202 202 201 199 195 193 192 191 190 192 194 194 193 193 193 192 196 203 209 217 225 233 238 242 246 251 256 260 261 260 259 258 260 262 262 261 260 261 261 262
177 161 150 166 207 246 246 238 242 243 254 256 199 179 210 266 249 211 231 236 226 223 211 213 215 216 239 243 209 180 170 172 173 174 176 179 185 185 183 183 183 186 190 191 193 194 195 196 196 197 198 198 197 198 198 200 201 202 203 203 201 199 197 197 197 196 196 197 196 195 195 196 196 199 204 208 213 220 228 234 239 244 249 251 252 253 254 256 260 263 263 263 263 262 263 264 265
195 178 160 192 194 212 239 230 244 259 276 278 190 167 214 276 232 194 211 230 232 228 221 220 218 227 246 237 160 166 179 179 176 176 183 187 188 189 186 186 187 189 190 191 193 194 195 198 198 198 198 198 198 199 199 200 202 202 202 203 202 201 201 201 201 201 201 200 198 197 197 198 199 201 203 204 208 215 222 230 237 241 246 249 251 254 257 259 262 264 263 263 265 267 267 267 269
217 151 149 231 204 188 246 253 249 277 315 275 212 199 240 267 277 242 225 239 239 228 223 217 218 236 244 219 164 179 188 182 180 180 186 188 185 190 193 193 193 191 190 192 193 194 196 199 200 200 199 199 199 199 200 201 202 201 201 202 202 202 202 202 201 201 201 201 200 199 198 199 200 199 199 201 206 213 220 227 234 240 245 249 252 255 257 259 261 261 262 264 267 270 270 270 271
186 140 191 224 172 166 223 265 273 298 285 271 258 254 274 300 288 252 225 238 243 234 229 217 212 229 236 223 199 201 196 187 189 187 187 186 182 191 198 198 198 195 194 195 195 196 198 200 201 201 200 200 200 201 201 201 201 201 201 201 201 201 201 202 201 200 199 199 199 201 201 199 200 200 200 203 208 214 221 227 234 240 245 249 252 254 255 257 259 260 262 265 270 273 272 272 273
131 177 213 186 35 104 174 264 298 271 257 271 277 273 285 291 282 265 193 227 236 230 225 215 213 223 229 227 220 213 197 186 188 188 188 189 189 195 200 202 204 203 201 200 199 199 201 202 203 201 199 199 202 202 202 201 200 200 201 201 201 201 202 202 202 201 199 197 197 199 200 201 201 202 204 207 211 216 223 229 235 240 244 248 251 253 255 256 258 261 264 267 272 274 273 274 276
132 220 238 107 82 229 157 182 234 245 251 269 280 283 279 259 261 299 297 224 216 220 218 213 219 225 228 233 233 213 181 177 185 188 190 193 197 201 202 204 206 207 208 207 205 203 203 205 205 204 202 201 202 202 201 201 202 201 201 202 202 201 202 201 201 200 199 198 198 198 200 202 202 204 207 210 215 220 225 230 234 238 242 246 250 253 254 257 260 264 268 271 274 274 273 275 276
53 4 352 84 163 174 176 192 200 227 243 266 281 285 276 260 248 277 273 224 198 209 215 216 224 231 235 238 235 206 180 191 192 192 199 201 203 205 203 204 205 207 210 209 208 207 207 207 206 206 206 203 202 202 201 201 202 202 202 201 202 202 201 200 199 199 199 199 200 200 201 202 203 206 209 213 218 222 226 229 231 236 240 244 248 251 254 259 264 267 269 271 271 270 269 271 272
173 206 258 224 199 143 226 246 214 216 227 248 261 266 271 269 164 215 285 212 193 199 202 217 229 238 247 247 239 216 203 211 202 196 205 208 211 210 204 205 207 207 209 209 210 211 210 209 207 207 205 202 202 202 201 202 202 201 201 200 201 201 200 199 198 198 199 199 200 201 201 202 203 206 209 213 219 223 225 227 229 233 239 243 245 248 253 258 260 262 264 266 267 267 268 270 273
183 198 208 208 204 188 243 249 228 216 224 234 240 254 263 261 91 47 4 56 194 209 196 218 232 239 250 251 240 224 206 211 211 205 206 205 208 206 200 203 205 206 207 207 209 210 211 212 211 209 206 203 202 201 201 202 201 200 201 200 199 199 198 197 196 196 197 198 198 199 199 200 201 205 209 214 219 222 223 225 228 233 237 240 244 247 250 253 254 257 261 263 266 268 270 272 274